| time (UTC) | temp F | wind direction | speed MPH | gust MPH | rain 1hr in | rain 24hr in | rain mn in | humidity % | barometer mb |
| 20260505184136 | 79 | 12 | 9.0 | 11.0 | 0.00 | 0.00 | 0.00 | 37 | 1036.1 |
| 20260505183131 | 78 | 24 | 5.0 | 8.0 | 0.00 | 0.00 | 0.00 | 37 | 1036.1 |
| 20260505182129 | 79 | 272 | 8.0 | 10.0 | 0.00 | 0.00 | 0.00 | 38 | 1036.2 |
| 20260505181129 | 79 | 307 | 5.0 | 7.0 | 0.00 | 0.00 | 0.00 | 39 | 1036.2 |
| 20260505180129 | 78 | 331 | 6.0 | 8.0 | 0.00 | 0.00 | 0.00 | 38 | 1036.2 |
| 20260505175127 | 79 | 354 | 12.0 | 17.0 | 0.00 | 0.00 | 0.00 | 38 | 1036.7 |
| 20260505174126 | 79 | 185 | 4.0 | 5.0 | 0.00 | 0.00 | 0.00 | 39 | 1036.5 |
| 20260505173125 | 78 | 331 | 12.0 | 17.0 | 0.00 | 0.00 | 0.00 | 39 | 1036.8 |
| 20260505172120 | 78 | 319 | 11.0 | 13.0 | 0.00 | 0.00 | 0.00 | 40 | 1036.4 |
| 20260505171118 | 77 | 33 | 7.0 | 8.0 | 0.00 | 0.00 | 0.00 | 40 | 1036.4 |
| 20260505170117 | 78 | 289 | 9.0 | 11.0 | 0.00 | 0.00 | 0.00 | 41 | 1036.9 |
| 20260505165114 | 77 | 342 | 13.0 | 17.0 | 0.00 | 0.00 | 0.00 | 42 | 1036.8 |
| 20260505164113 | 76 | 202 | 9.0 | 11.0 | 0.00 | 0.00 | 0.00 | 43 | 1037.0 |
| 20260505163108 | 76 | 355 | 5.0 | 6.0 | 0.00 | 0.00 | 0.00 | 43 | 1037.0 |
| 20260505162103 | 77 | 302 | 8.0 | 9.0 | 0.00 | 0.00 | 0.00 | 43 | 1037.1 |
| 20260505161103 | 76 | 323 | 5.0 | 6.0 | 0.00 | 0.00 | 0.00 | 47 | 1037.4 |
| 20260505160104 | 76 | 40 | 3.0 | 3.0 | 0.00 | 0.00 | 0.00 | 44 | 1037.5 |
| 20260505153100 | 75 | 111 | 7.0 | 9.0 | 0.00 | 0.00 | 0.00 | 44 | 1037.7 |
| 20260505152058 | 75 | 274 | 4.0 | 5.0 | 0.00 | 0.00 | 0.00 | 45 | 1037.6 |
| 20260505151057 | 75 | 295 | 5.0 | 7.0 | 0.00 | 0.00 | 0.00 | 45 | 1037.7 |
| 20260505125036 | 64 | 110 | 1.0 | 1.0 | 0.00 | 0.00 | 0.00 | 73 | 1038.7 |
| 20260505124034 | 62 | 100 | 0.0 | 1.0 | 0.00 | 0.00 | 0.00 | 74 | 1038.7 |
| 20260505123032 | 59 | 103 | 1.0 | 1.0 | 0.00 | 0.00 | 0.00 | 77 | 1038.9 |
| 20260505122032 | 58 | 104 | 0.0 | 0.0 | 0.00 | 0.00 | 0.00 | 81 | 1038.7 |
| 20260505121031 | 56 | 102 | 0.0 | 1.0 | 0.00 | 0.00 | 0.00 | 83 | 1039.0 |
| 20260505120029 | 56 | 102 | 1.0 | 1.0 | 0.00 | 0.00 | 0.00 | 81 | 1039.0 |
| 20260505115028 | 54 | 100 | 0.0 | 0.0 | 0.00 | 0.00 | 0.00 | 86 | 1038.8 |
| 20260505114027 | 54 | 101 | 1.0 | 1.0 | 0.00 | 0.00 | 0.00 | 85 | 1039.0 |
| 20260505113026 | 51 | 100 | 1.0 | 1.0 | 0.00 | 0.00 | 0.00 | 90 | 1038.8 |
| 20260505112020 | 50 | 91 | 0.0 | 0.0 | 0.00 | 0.00 | 0.00 | 94 | 1038.9 |
| 20260505111016 | 49 | 91 | 0.0 | 0.0 | 0.00 | 0.00 | 0.00 | 94 | 1038.6 |
| 20260505102009 | 46 | 90 | 0.0 | 0.0 | 0.00 | 0.00 | 0.00 | 95 | 1038.3 |
| 20260505101009 | 46 | 90 | 1.0 | 1.0 | 0.00 | 0.00 | 0.00 | 95 | 1038.0 |
| 20260505100010 | 46 | 91 | 0.0 | 0.0 | 0.00 | 0.00 | 0.00 | 94 | 1038.1 |
| 20260505095008 | 46 | 91 | 0.0 | 0.0 | 0.00 | 0.00 | 0.00 | 94 | 1038.1 |
| 20260505094006 | 46 | 91 | 0.0 | 0.0 | 0.00 | 0.00 | 0.00 | 94 | 1038.0 |
| 20260505093006 | 46 | 92 | 0.0 | 0.0 | 0.00 | 0.00 | 0.00 | 94 | 1038.0 |
| 20260505092001 | 47 | 92 | 0.0 | 0.0 | 0.00 | 0.00 | 0.00 | 93 | 1037.8 |
| 20260505090957 | 47 | 92 | 0.0 | 0.0 | 0.00 | 0.00 | 0.00 | 93 | 1037.9 |
| 20260505085951 | 48 | 91 | 0.0 | 0.0 | 0.00 | 0.00 | 0.00 | 93 | 1038.1 |
| 20260505084947 | 48 | 92 | 0.0 | 0.0 | 0.00 | 0.00 | 0.00 | 92 | 1037.9 |
| 20260505083943 | 49 | 91 | 0.0 | 0.0 | 0.00 | 0.00 | 0.00 | 92 | 1037.9 |
| 20260505082942 | 49 | 93 | 0.0 | 0.0 | 0.00 | 0.00 | 0.00 | 91 | 1037.8 |
| 20260505081941 | 49 | 85 | 0.0 | 0.0 | 0.00 | 0.00 | 0.00 | 91 | 1038.1 |
| 20260505080940 | 49 | 101 | 0.0 | 0.0 | 0.00 | 0.00 | 0.00 | 90 | 1037.8 |
| 20260505075938 | 49 | 87 | 1.0 | 1.0 | 0.00 | 0.00 | 0.00 | 90 | 1038.1 |
| 20260505074932 | 49 | 87 | 0.0 | 0.0 | 0.00 | 0.00 | 0.00 | 89 | 1037.7 |
| 20260505073932 | 49 | 96 | 1.0 | 1.0 | 0.00 | 0.00 | 0.00 | 88 | 1037.6 |
| 20260505072932 | 50 | 85 | 0.0 | 1.0 | 0.00 | 0.00 | 0.00 | 87 | 1037.4 |
| 20260505071930 | 50 | 94 | 0.0 | 1.0 | 0.00 | 0.00 | 0.00 | 85 | 1037.5 |
| 20260505070930 | 50 | 86 | 0.0 | 0.0 | 0.00 | 0.00 | 0.00 | 84 | 1037.4 |
| 20260505065928 | 50 | 82 | 0.0 | 0.0 | 0.00 | 0.00 | 0.00 | 84 | 1037.6 |
| 20260505064927 | 50 | 101 | 1.0 | 1.0 | 0.00 | 0.00 | 0.00 | 83 | 1037.4 |
| 20260505063923 | 51 | 109 | 1.0 | 2.0 | 0.00 | 0.00 | 0.00 | 82 | 1037.6 |
| 20260505062921 | 51 | 104 | 1.0 | 1.0 | 0.00 | 0.00 | 0.00 | 81 | 1037.8 |
| 20260505061921 | 52 | 104 | 0.0 | 0.0 | 0.00 | 0.00 | 0.00 | 81 | 1037.7 |
| 20260505060917 | 52 | 104 | 1.0 | 1.0 | 0.00 | 0.00 | 0.00 | 80 | 1037.8 |
| 20260505055915 | 52 | 91 | 0.0 | 0.0 | 0.00 | 0.00 | 0.00 | 80 | 1038.0 |
| 20260505054914 | 52 | 102 | 1.0 | 1.0 | 0.00 | 0.00 | 0.00 | 79 | 1037.9 |
| 20260505053910 | 52 | 100 | 0.0 | 0.0 | 0.00 | 0.00 | 0.00 | 78 | 1037.8 |
| 20260505052909 | 52 | 100 | 0.0 | 0.0 | 0.00 | 0.00 | 0.00 | 78 | 1037.8 |
| 20260505051909 | 52 | 98 | 0.0 | 1.0 | 0.00 | 0.00 | 0.00 | 77 | 1038.1 |
| 20260505050904 | 51 | 87 | 0.0 | 0.0 | 0.00 | 0.00 | 0.00 | 78 | 1037.8 |
| 20260505040855 | 54 | 82 | 1.0 | 1.0 | 0.00 | 0.00 | 0.00 | 72 | 1037.4 |
| 20260505035855 | 54 | 91 | 1.0 | 1.0 | 0.00 | 0.00 | 0.00 | 71 | 1037.3 |
| 20260505034855 | 55 | 69 | 1.0 | 2.0 | 0.00 | 0.00 | 0.00 | 70 | 1037.2 |
| 20260505033854 | 56 | 92 | 1.0 | 1.0 | 0.00 | 0.00 | 0.00 | 68 | 1037.3 |
| 20260505032849 | 57 | 87 | 1.0 | 1.0 | 0.00 | 0.00 | 0.00 | 64 | 1037.2 |
| 20260505031848 | 59 | 68 | 2.0 | 2.0 | 0.00 | 0.00 | 0.00 | 58 | 1037.2 |
| 20260505030848 | 64 | 102 | 1.0 | 1.0 | 0.00 | 0.00 | 0.00 | 48 | 1037.3 |
| 20260505025845 | 64 | 96 | 1.0 | 2.0 | 0.00 | 0.00 | 0.00 | 47 | 1037.3 |
| 20260505024841 | 64 | 7 | 3.0 | 5.0 | 0.00 | 0.00 | 0.00 | 47 | 1037.2 |
| 20260505023841 | 65 | 108 | 1.0 | 1.0 | 0.00 | 0.00 | 0.00 | 47 | 1037.4 |
| 20260505022842 | 65 | 87 | 0.0 | 1.0 | 0.00 | 0.00 | 0.00 | 46 | 1037.4 |
| 20260505021842 | 65 | 55 | 1.0 | 3.0 | 0.00 | 0.00 | 0.00 | 46 | 1037.4 |
| 20260505020840 | 66 | 75 | 1.0 | 2.0 | 0.00 | 0.00 | 0.00 | 46 | 1037.4 |
| 20260505015838 | 66 | 106 | 4.0 | 6.0 | 0.00 | 0.00 | 0.00 | 46 | 1037.2 |
| 20260505014838 | 66 | 53 | 4.0 | 6.0 | 0.00 | 0.00 | 0.00 | 45 | 1037.4 |
| 20260505013837 | 66 | 86 | 1.0 | 1.0 | 0.00 | 0.00 | 0.00 | 45 | 1037.3 |
| 20260505012833 | 66 | 73 | 2.0 | 2.0 | 0.00 | 0.00 | 0.00 | 44 | 1037.2 |
| 20260505011832 | 66 | 14 | 2.0 | 3.0 | 0.00 | 0.00 | 0.00 | 45 | 1037.1 |
| 20260505010831 | 66 | 99 | 2.0 | 2.0 | 0.00 | 0.00 | 0.00 | 44 | 1036.9 |
| 20260505005829 | 67 | 87 | 1.0 | 1.0 | 0.00 | 0.00 | 0.00 | 44 | 1036.6 |
| 20260505004824 | 66 | 108 | 1.0 | 1.0 | 0.00 | 0.00 | 0.00 | 44 | 1036.6 |
| 20260505003823 | 66 | 88 | 0.0 | 0.0 | 0.00 | 0.00 | 0.00 | 44 | 1036.7 |
| 20260505002822 | 66 | 111 | 3.0 | 3.0 | 0.00 | 0.00 | 0.00 | 44 | 1036.5 |
| 20260505001818 | 67 | 95 | 0.0 | 0.0 | 0.00 | 0.00 | 0.00 | 42 | 1036.5 |
| 20260505000817 | 68 | 104 | 0.0 | 1.0 | 0.00 | 0.00 | 0.00 | 42 | 1036.3 |
| 20260504235817 | 67 | 49 | 2.0 | 2.0 | 0.00 | 0.00 | 0.00 | 43 | 1036.3 |
| 20260504234817 | 68 | 55 | 1.0 | 1.0 | 0.00 | 0.00 | 0.00 | 42 | 1036.4 |
| 20260504233816 | 69 | 102 | 0.0 | 1.0 | 0.00 | 0.00 | 0.00 | 41 | 1036.2 |
| 20260504232815 | 69 | 76 | 1.0 | 1.0 | 0.00 | 0.00 | 0.00 | 40 | 1036.1 |
| 20260504231815 | 70 | 134 | 4.0 | 5.0 | 0.00 | 0.00 | 0.00 | 39 | 1036.2 |
| 20260504230813 | 70 | 141 | 4.0 | 5.0 | 0.00 | 0.00 | 0.00 | 38 | 1036.0 |
| 20260504225810 | 71 | 41 | 3.0 | 3.0 | 0.00 | 0.00 | 0.00 | 36 | 1036.1 |
| 20260504224809 | 72 | 282 | 4.0 | 5.0 | 0.00 | 0.00 | 0.00 | 36 | 1035.8 |
| 20260504223808 | 72 | 5 | 6.0 | 8.0 | 0.00 | 0.00 | 0.00 | 35 | 1035.9 |
| 20260504222807 | 72 | 7 | 2.0 | 2.0 | 0.00 | 0.00 | 0.00 | 34 | 1035.4 |
| 20260504221801 | 73 | 287 | 5.0 | 6.0 | 0.00 | 0.00 | 0.00 | 34 | 1035.6 |
| 20260504220801 | 73 | 357 | 5.0 | 6.0 | 0.00 | 0.00 | 0.00 | 34 | 1035.8 |
| 20260504215755 | 73 | 253 | 8.0 | 9.0 | 0.00 | 0.00 | 0.00 | 34 | 1036.0 |
| 20260504214753 | 74 | 212 | 5.0 | 7.0 | 0.00 | 0.00 | 0.00 | 34 | 1036.1 |
| 20260504213753 | 73 | 37 | 1.0 | 2.0 | 0.00 | 0.00 | 0.00 | 34 | 1036.2 |
| 20260504212752 | 72 | 105 | 6.0 | 9.0 | 0.00 | 0.00 | 0.00 | 35 | 1036.0 |
| 20260504211752 | 73 | 302 | 6.0 | 7.0 | 0.00 | 0.00 | 0.00 | 34 | 1036.1 |
| 20260504210751 | 73 | 60 | 3.0 | 3.0 | 0.00 | 0.00 | 0.00 | 32 | 1036.0 |
| 20260504205751 | 73 | 289 | 4.0 | 5.0 | 0.00 | 0.00 | 0.00 | 34 | 1036.1 |
| 20260504204747 | 73 | 74 | 3.0 | 5.0 | 0.00 | 0.00 | 0.00 | 33 | 1036.3 |
| 20260504203744 | 73 | 317 | 5.0 | 7.0 | 0.00 | 0.00 | 0.00 | 35 | 1036.3 |
| 20260504202741 | 71 | 111 | 4.0 | 6.0 | 0.00 | 0.00 | 0.00 | 35 | 1036.7 |
| 20260504201735 | 72 | 134 | 2.0 | 2.0 | 0.00 | 0.00 | 0.00 | 34 | 1036.8 |
| 20260504200730 | 72 | 202 | 2.0 | 3.0 | 0.00 | 0.00 | 0.00 | 34 | 1037.0 |
| 20260504195728 | 72 | 277 | 7.0 | 8.0 | 0.00 | 0.00 | 0.00 | 35 | 1037.0 |
| 20260504194727 | 71 | 327 | 9.0 | 11.0 | 0.00 | 0.00 | 0.00 | 37 | 1037.2 |
| 20260504193726 | 71 | 249 | 5.0 | 7.0 | 0.00 | 0.00 | 0.00 | 35 | 1037.4 |
| 20260504192721 | 71 | 14 | 4.0 | 5.0 | 0.00 | 0.00 | 0.00 | 36 | 1037.3 |
| 20260504191718 | 71 | 280 | 12.0 | 15.0 | 0.00 | 0.00 | 0.00 | 35 | 1037.5 |
| 20260504190715 | 70 | 93 | 2.0 | 3.0 | 0.00 | 0.00 | 0.00 | 35 | 1037.6 |
| 20260504185714 | 70 | 24 | 7.0 | 8.0 | 0.00 | 0.00 | 0.00 | 37 | 1037.7 |
| 20260504184713 | 69 | 267 | 5.0 | 7.0 | 0.00 | 0.00 | 0.00 | 36 | 1038.0 |